San Bernardino, CA

11:57 AM PST on November 21, 2019 (GMT -0800)
San Bernardino International

Weather History for KSBD - May, 2019

Change the Weather History Date:

Thursday, May 23, 2019

  Actual Average Record
Temperature  
Mean Temperature 54 °F -  
Max Temperature 57 °F 81 °F 98 °F (2017)
Min Temperature 51 °F 53 °F 51 °F (2019)
Degree Days  
Heating Degree Days 11    
Growing Degree Days 4 (Base 50)    
Moisture  
Dew Point 48 °F    
Average Humidity 80    
Maximum Humidity 88    
Minimum Humidity 72    
Precipitation  
Precipitation 0.00 in - - ()
Sea Level Pressure  
Sea Level Pressure 29.93 in    
Wind  
Wind Speed 2 mph (ENE)    
Max Wind Speed 9 mph    
Max Gust Speed -    
Visibility 8 miles    
Events      
Averages and records for this station are not official NWS values.
T = Trace of Precipitation, MM = Missing Value Source: NWS Daily Summary

Daily Weather History Graph

Daily Weather History Graph

Search for Another Location

Airport or City:

Astronomy

May. 23, 2019 Rise Set
Actual Time 5:42 AM PDT 7:49 PM PDT
Civil Twilight 5:14 AM PDT 8:17 PM PDT
Nautical Twilight 4:39 AM PDT 8:52 PM PDT
Astronomical Twilight 4:02 AM PDT 9:29 PM PDT
Moon No Moon Rise 9:50 AM PDT (5/23)
Length of Visible Light 15h 03m
Length of Day
14h 07m
Waning Gibbous, 76% of the Moon is Illuminated
May 23
Waning Gibbous
May 26
Last Quarter
Jun 3
New
Jun 9
First Quarter
Jun 17
Full

Hourly Weather History & Observations

Time (PDT) Temp. Dew Point Humidity Pressure Visibility Wind Dir Wind Speed Gust Speed Precip Events Conditions
12:00 AM 51.3 °F 46.4 °F 83% 29.85 in 10.0 mi Calm Calm - N/A   Mostly Cloudy
12:20 AM 51.8 °F 46.8 °F 83% 29.86 in 10.0 mi Calm Calm - N/A   Overcast
12:40 AM 51.6 °F 46.4 °F 82% 29.86 in 10.0 mi East 6.9 mph - N/A   Overcast
1:00 AM 51.8 °F 46.4 °F 82% 29.86 in 10.0 mi Calm Calm - N/A   Overcast
1:20 AM 51.8 °F 46.0 °F 81% 29.85 in 10.0 mi East 5.8 mph - N/A   Overcast
1:40 AM 51.8 °F 45.9 °F 80% 29.84 in 10.0 mi Calm Calm - N/A   Overcast
2:00 AM 52.3 °F 45.7 °F 78% 29.85 in 10.0 mi Calm Calm - N/A   Overcast
2:20 AM 52.9 °F 46.4 °F 79% 29.85 in 10.0 mi Calm Calm - N/A   Overcast
2:40 AM 52.9 °F 46.6 °F 79% 29.86 in 10.0 mi Calm Calm - N/A   Overcast
3:00 AM 53.1 °F 46.8 °F 79% 29.85 in 10.0 mi East 4.6 mph - N/A   Overcast
3:20 AM 53.1 °F 46.0 °F 77% 29.86 in 10.0 mi Calm Calm - N/A   Overcast
4:00 AM 53.6 °F 46.4 °F 77% 29.86 in 10.0 mi Calm Calm - N/A   Overcast
4:20 AM 53.6 °F 46.9 °F 78% 29.86 in 10.0 mi ENE 5.8 mph - N/A   Overcast
4:40 AM 53.2 °F 47.1 °F 80% 29.87 in 10.0 mi ENE 5.8 mph - N/A   Overcast
5:00 AM 53.6 °F 47.3 °F 79% 29.87 in 10.0 mi East 4.6 mph - N/A   Overcast
5:20 AM 53.6 °F 46.9 °F 78% 29.87 in 10.0 mi Calm Calm - N/A   Overcast
5:40 AM 53.8 °F 46.9 °F 78% 29.88 in 10.0 mi Calm Calm - N/A   Overcast
6:50 AM 55.4 °F 46.4 °F 72% 29.90 in 6.0 mi East 3.5 mph - N/A   Haze
7:50 AM 55.4 °F 46.4 °F 72% 29.92 in 6.0 mi Calm Calm - N/A   Haze
8:50 AM 57.2 °F 48.2 °F 72% 29.94 in 5.0 mi East 5.8 mph - N/A   Haze
9:50 AM 57.2 °F 48.2 °F 72% 29.95 in 5.0 mi ENE 6.9 mph - N/A   Haze
10:48 AM 55.4 °F 50.0 °F 82% 29.97 in 5.0 mi ENE 8.1 mph - N/A   Drizzle
11:50 AM 55.4 °F 50.0 °F 82% 29.99 in 4.0 mi ENE 6.9 mph - N/A   Drizzle
12:50 PM 55.4 °F 51.8 °F 88% 30.00 in 3.0 mi ENE 6.9 mph - N/A   Drizzle
1:50 PM 55.4 °F 51.8 °F 88% 30.01 in 3.0 mi ENE 9.2 mph - N/A   Drizzle
3:48 PM 57.2 °F 51.8 °F 82% 30.01 in 5.0 mi NNW 4.6 mph - N/A   Light Drizzle
4:49 PM 55.4 °F 51.8 °F 88% 30.02 in 5.0 mi North 4.6 mph - N/A   Haze
5:47 PM 57.2 °F 51.8 °F 82% 30.01 in 7.0 mi North 4.6 mph - N/A   Overcast
6:50 PM 57.2 °F 50.0 °F 77% 30.01 in 10.0 mi Calm Calm - N/A   Overcast
7:49 PM 57.2 °F 50.0 °F 77% 30.01 in 10.0 mi Calm Calm - N/A   Overcast
8:50 PM 57.2 °F 50.0 °F 77% 30.02 in 10.0 mi Calm Calm - N/A   Overcast
9:40 PM 56.5 °F 50.2 °F 79% 30.02 in 10.0 mi SSE 3.5 mph - N/A   Mostly Cloudy
10:00 PM 56.5 °F 50.5 °F 80% 30.03 in 10.0 mi Calm Calm - N/A   Overcast
10:20 PM 56.3 °F 50.2 °F 80% 30.03 in 10.0 mi Calm Calm - N/A   Overcast
10:40 PM 56.3 °F 50.5 °F 81% 30.03 in 10.0 mi Calm Calm - N/A   Overcast
11:00 PM 55.9 °F 50.4 °F 82% 30.03 in 10.0 mi Calm Calm - N/A   Overcast
11:40 PM 55.4 °F 50.0 °F 82% 30.03 in 10.0 mi Calm Calm - N/A   Overcast